Decimomannu, Italy

6:20 AM CEST on May 25, 2017 (GMT +0200)
Decimomannu Mil

Weather History for LIED - November, 2012

Change the Weather History Date:

Thursday, November 8, 2012

  Actual Average Record
Temperature  
Mean Temperature 55 °F -  
Max Temperature 68 °F 63 °F 78 °F (2013)
Min Temperature 42 °F 46 °F 42 °F (1998)
Degree Days  
Heating Degree Days 10    
Growing Degree Days 5 (Base 50)    
Moisture  
Dew Point 48 °F    
Average Humidity 76    
Maximum Humidity 94    
Minimum Humidity 42    
Precipitation  
Precipitation 0.00 in 0.08 in - ()
Sea Level Pressure  
Sea Level Pressure 30.25 in    
Wind  
Wind Speed 3 mph ()    
Max Wind Speed 9 mph    
Max Gust Speed -    
Visibility 7.4 miles    
Events      
Averages and records for this station are not official NWS values.
T = Trace of Precipitation, MM = Missing Value Source: Averaged Metar Reports

Daily Weather History Graph

Daily Weather History Graph

Search for Another Location

Airport or City:

Trip Planner

Search our weather history database for the weather conditions in past years. The results will help you decide how hot, cold, wet, or windy it might be!

Date:

Astronomy

Nov. 08, 2012 Rise Set
Actual Time 7:00 AM CET 5:15 PM CET
Civil Twilight 6:31 AM CET 5:43 PM CET
Nautical Twilight 5:59 AM CET 6:15 PM CET
Astronomical Twilight 5:28 AM CET 6:46 PM CET
Moon 12:40 AM CET (11/8) 1:45 PM CET (11/8)
Length of Visible Light 11h 11m
Length of Day
10h 14m
Waning Crescent, 35% of the Moon is Illuminated
Nov 8
Waning Crescent
Nov 13
New
Nov 20
First Quarter
Nov 28
Full
Dec 6
Last Quarter

Hourly Weather History & Observations

Time (CET) Temp. Windchill Dew Point Humidity Pressure Visibility Wind Dir Wind Speed Gust Speed Precip Events Conditions
12:55 AM 48.2 °F - 44.6 °F 87% 30.33 in - Calm Calm - N/A   Clear
1:00 AM 48 °F - 45 °F 86% 30.34 in 6 mi Calm Calm - -  
2:55 AM 44.6 °F 43.1 °F 42.8 °F 93% 30.30 in - NW 3.5 mph - N/A   Clear
3:55 AM 44.6 °F 42.2 °F 41.0 °F 87% 30.30 in - North 4.6 mph - N/A   Clear
4:00 AM 45 °F - 40 °F 78% 30.32 in 9 mi North 4.6 mph - -  
4:55 AM 42.8 °F - 39.2 °F 87% 30.30 in - Calm Calm - N/A   Clear
5:55 AM 42.8 °F - 37.4 °F 81% 30.27 in 6.2 mi NW 2.3 mph - N/A   Partly Cloudy
6:55 AM 42.8 °F 41.1 °F 37.4 °F 81% 30.27 in 6.2 mi North 3.5 mph - N/A   Partly Cloudy
7:55 AM 44.6 °F - 41.0 °F 87% 30.30 in 6.2 mi Calm Calm - N/A   Partly Cloudy
8:55 AM 50.0 °F - 44.6 °F 82% 30.30 in 6.2 mi Calm Calm - N/A   Partly Cloudy
9:55 AM 53.6 °F - 48.2 °F 82% 30.30 in 6.2 mi WNW 2.3 mph - N/A   Partly Cloudy
10:00 AM 54 °F - 49 °F 76% 30.32 in 12 mi WNW 2.3 mph - -   Scattered Clouds
10:55 AM 59.0 °F - 51.8 °F 77% 30.30 in 6.2 mi NW 1.2 mph - N/A   Partly Cloudy
11:55 AM 66.2 °F - 50.0 °F 56% 30.30 in 6.2 mi SSE 6.9 mph - N/A   Partly Cloudy
12:55 PM 68.0 °F - 50.0 °F 52% 30.24 in 6.2 mi SSE 8.1 mph - N/A   Partly Cloudy
1:00 PM 68 °F - 50 °F 42% 30.26 in 12 mi SSE 8.1 mph - -   Scattered Clouds
1:55 PM 68.0 °F - 50.0 °F 52% 30.24 in 6.2 mi SSE 6.9 mph - N/A   Partly Cloudy
2:55 PM 68.0 °F - 50.0 °F 52% 30.21 in - SSE 9.2 mph - N/A   Clear
3:55 PM 66.2 °F - 51.8 °F 60% 30.18 in - SSE 9.2 mph - N/A   Clear
4:00 PM 66 °F - 52 °F 51% 30.21 in 12 mi SSE 9.2 mph - -   Clear
4:55 PM 62.6 °F - 53.6 °F 72% 30.18 in - SSE 9.2 mph - N/A   Clear
5:55 PM 60.8 °F - 53.6 °F 77% 30.18 in - SSE 8.1 mph - N/A   Clear
6:55 PM 59.0 °F - 55.4 °F 88% 30.21 in - SSE 6.9 mph - N/A   Clear
7:00 PM 60 °F - 55 °F 78% 30.22 in 9 mi SSE 6.9 mph - -  
9:55 PM 53.6 °F - 51.8 °F 94% 30.18 in 6.2 mi ENE 4.6 mph - N/A   Partly Cloudy
10:00 PM 54 °F - 51 °F 86% 30.21 in 7 mi ENE 4.6 mph - -   Scattered Clouds
10:55 PM 53.6 °F - 50.0 °F 88% 30.18 in 6.2 mi ENE 2.3 mph - N/A   Partly Cloudy
11:55 PM 50.0 °F - 46.4 °F 87% 30.18 in 6.2 mi NW 2.3 mph - N/A   Partly Cloudy